EHI
0 0 0 0 0 0 0 0 0 0 0 0 0 0 0 0 0 0 0 0 0 0 0 0 0 0 0 0 0 0 0 0 0 0 0 0 0 0 0 0 0 0 0
0 0 0 0 0 0 0 0 0 0 0 0 0 0 0 0 0 0 0 0 0 0 0 0 0 0 0 0 0 0 0 0 0 0 0 0 0 0 0 0 0 0 0
0 0 0 0 0 0 0 0 0 0 0 0 0 0 0 0 0 0 0 0 0 0 0 0 0 0 0 0 0 0 0 0 0 0 0 0 0 0 0 0 0 0 0
0 0 0 0 0 0 0 0 0 0 0 0 0 0 0 0 0 0 0 0 0 0 0 0 0 0 0 0 0 0 0 0 0 0 0 0 0 0 0 0 0 0 0
0 0 0 0 0 0 0 0 0 0 0 0 0 0 0 0 0 0 0 0 0 0 0 0 0 0 0 0 0 0 0 0 0 0 0 0 0 0 0 0 0 0 0
0 0 0 0 0 0 0 0 0 0 0 0 0 0 0 0 0 0 0 0 0 0 0 0 0 0 0 0 0 0 0 0 0 0 0 0 0 0 0 0 0 0 0
0 0 0 0 0 0 0 0 0 0 0 0 0 0 0 0 0 0 0 0 0 0 0 0 0 0 0 0 0 0 0 0 0 0 0 0 0 0 0 0 0 0 0
0 0 0 0 0 0 0 0 0 0 0 0 0 0 0 0 0 0 0 0 0 0 0 0 0 0 0 0 0 0 0 0 0 0 0 0 0 0 0 0 0 0 0
0 0 0 0 0 0 0 0 0 0 0 0 0 0 0 0 0 0 0 0 0 0 0 0 0 0 0 0 0 0 0 0 0 0 0 0 0 0 0 0 0 0 0
0 0 0 0 0 0 0 0 0 0 0 0 0 0 0 0 0 0 0 0 0 0 0 0 0 0 0 0 0 0 0 0 0 0 0 0 0 0 0 0 0 0 0
0 0 0 0 0 0 0 0 0 0 0 0 0 0 0 0 0 0 0 0 0 0 0 0 0 0 0 0 0 0 0 0 0 0 0 0 0 0 0 0 0 0 0
0 0 0 0 0 0 0 0 0 0 0 0 0 0 0 0 0 0 0 0 0 0 0 0 0 0 0 0 0 0 0 0 0 0 0 0 0 0 0 0 0 0 0
0 0 0 0 0 0 0 0 0 0 0 0 0 0 0 0 0 0 0 0 0 0 0 0 0 0 0 0 0 0 0 0 0 0 0 0 0 0 0 0 0 0 0
0 0 0 0 0 0 0 0 0 0 0 0 0 0 0 0 0 0 0 0 0 0 0 0 0 0 0 0 0 0 0 0 0 0 0 0 0 0 0 0 0 0 0
0 0 0 0 0 0 0 0 0 0 0 0 0 0 0 0 0 0 0 0 0 0 0 0 0 0 0 0 0 0 0 0 0 0 0 0 0 0 0 0 0 0 0
0 0 0 0 0 0 0 0 0 0 0 0 0 0 0 0 0 0 0 0 0 0 0 0 0 0 0 0 0 0 0 0 0 0 0 0 0 0 0 0 0 0 0
0 0 0 0 0 0 0 0 0 0 0 0 0 0 0 0 0 0 0 0 0 0 0 0 0 0 0 0 0 0 0 0 0 0 0 0 0 0 0 0 0 0 0
0 0 0 0 0 0 0 0 0 0 0 0 0 0 0 0 0 0 0 0 0 0 0 0 0 0 0 0 0 0 0 0 0 0 0 0 0 0 0 0 0 0 0
0 0 0 0 0 0 0 0 0 0 0 0 0 0 0 0 0 0 0 0 0 0 0 0 0 0 0 0 0 0 0 0 0 0 0 0 0 0 0 0 0 0 0
0 0 0 0 0 0 0 0 0 0 0 0 0 0 0 0 0 0 0 0 0 0 0 0 0 0 0 0 0 0 0 0 0 0 0 0 0 0 0 0 0 0 0
0 0 0 0 0 0 0 0 0 0 0 0 0 0 0 0 0 0 0 0 0 0 0 0 0 0 0 0 0 0 0 0 0 0 0 0 0 0 0 0 0 0 0
0 0 0 0 0 0 0 0 0 0 0 0 0 0 0 0 0 0 0 0 0 0 0 0 0 0 0 0 0 0 0 0 0 0 0 0 0 0 0 0 0 0 0
0 0 0 0 0 0 0 0 0 0 0 0 0 0 0 0 0 0 0 0 0 0 0 0 0 0 0 0 0 0 0 0 0 0 0 0 0 0 0 0 0 0 0
0 0 0 0 0 0 0 0 0 0 0 0 0 0 0 0 0 0 0 0 0 0 0 0 0 0 0 0 0 0 0 0 0 0 0 0 0 0 0 0 0 0 0
0 0 0 0 0 0 0 0 0 0 0 0 0 0 0 0 0 0 0 0 0 0 0 0 0 0 0 0 0 0 0 0 0 0 0 0 0 0 0 0 0 0 0
0 0 0 0 0 0 0 0 0 0 0 0 0 0 0 0 0 0 0 0 0 0 0 0 0 0 0 0 0 0 0 0 0 0 0 0 0 0 0 0 0 0 0
Wind_Speed
6 6 7 7 7 7 6 7 7 7 8 8 7 7 7 7 5 3 2 2 2 2 2 4 4 4 4 3 3 3 3 3 3 2 1 1 2 3 3 3 3 3 3
5 5 6 7 7 7 7 7 7 8 8 8 7 7 7 6 6 5 4 3 2 2 2 3 3 3 3 3 3 4 3 3 3 3 1 1 2 3 4 4 3 3 2
4 5 6 7 7 7 7 7 7 7 7 8 8 8 7 6 6 6 5 4 3 2 2 2 3 3 3 2 3 4 3 3 3 3 3 1 1 2 3 3 3 3 3
4 5 6 6 6 6 6 6 7 7 7 7 7 7 7 6 6 6 6 5 4 3 2 2 2 3 3 3 3 3 3 3 3 3 3 2 2 2 3 4 3 2 3
4 4 5 5 5 5 6 6 6 6 7 6 7 7 7 6 6 6 5 5 4 4 4 3 2 2 3 3 3 3 4 3 3 3 3 2 2 3 3 3 4 4 4
3 3 4 4 5 5 5 5 6 6 6 6 7 7 7 6 10 10 6 5 4 4 4 3 3 3 3 3 4 5 6 5 4 3 3 3 3 3 3 4 5 4 3
2 2 3 4 4 5 5 5 5 5 5 6 6 7 7 8 11 11 9 5 5 5 4 4 3 4 4 3 5 6 4 4 5 5 4 4 4 4 5 5 4 3 4
2 2 2 3 4 4 5 5 4 4 4 4 5 6 6 9 12 10 10 6 5 5 5 4 4 3 3 4 5 5 5 4 3 3 4 3 3 4 5 5 6 6 6
1 0 1 1 3 4 4 4 3 3 4 4 4 6 7 8 13 11 9 4 5 5 5 5 4 4 5 6 6 6 6 5 6 8 7 6 7 8 8 7 7 7 5
2 1 1 0 1 2 3 3 3 2 3 4 5 5 6 7 12 12 9 4 5 4 5 5 7 5 6 6 5 5 6 4 4 6 7 8 7 7 8 6 6 6 4
3 1 1 1 1 1 2 3 3 3 3 4 4 5 6 8 11 13 11 4 3 4 4 4 4 7 7 7 5 4 5 5 5 6 6 6 5 5 5 4 4 5 4
3 2 1 1 1 1 2 3 3 3 4 4 4 4 5 6 8 10 12 9 5 4 3 3 3 6 7 6 5 6 8 7 4 5 5 5 4 4 4 5 6 6 4
3 3 2 1 1 0 1 2 2 3 3 2 2 3 3 4 6 11 11 10 8 4 2 4 6 7 7 5 7 8 6 4 4 5 4 3 2 3 4 4 5 6 7
4 4 3 3 2 1 1 1 1 1 1 1 1 1 2 3 4 5 5 5 6 4 3 5 7 9 7 6 6 5 4 3 4 4 3 3 2 3 3 3 3 3 5
4 4 4 4 3 2 1 1 1 2 2 2 1 1 1 2 4 5 3 3 2 2 2 3 4 4 4 4 4 4 3 3 3 3 3 3 3 3 3 2 3 3 3
4 4 4 3 3 3 2 1 2 3 3 3 3 3 2 3 5 5 5 5 4 3 4 3 3 3 3 3 3 3 3 3 2 3 3 3 3 3 3 2 3 3 3
6 5 4 4 4 4 3 3 3 3 4 5 5 5 4 4 4 4 5 4 3 4 3 2 2 2 2 2 2 2 2 1 2 3 3 3 3 3 3 3 3 3 3
6 6 6 5 5 4 4 4 4 3 3 3 5 7 7 5 4 4 3 2 3 3 1 2 1 1 1 1 1 1 2 2 2 2 3 3 3 3 3 3 3 3 3
6 4 5 5 4 4 4 4 4 4 4 3 2 3 6 5 4 4 1 1 1 1 1 2 2 2 2 2 1 2 2 2 2 2 2 3 3 3 3 3 3 4 3
6 9 7 5 4 4 4 4 4 4 4 4 4 4 3 2 2 2 2 2 3 3 3 3 2 2 2 2 2 2 2 2 2 2 2 2 3 3 4 4 4 3 3
6 6 9 5 5 5 5 5 4 4 5 5 5 6 9 5 5 5 4 4 4 4 4 4 4 3 3 3 2 3 3 2 3 3 3 3 3 3 3 3 3 3 3
6 6 6 6 5 5 5 5 5 5 5 6 5 5 11 6 5 5 5 5 5 5 5 5 4 4 4 4 4 4 3 3 3 3 3 3 3 3 3 3 3 3 3
8 7 6 6 6 7 6 5 5 5 5 6 5 5 5 6 6 6 6 6 5 5 5 5 5 5 4 4 4 4 5 5 4 5 5 4 3 3 3 3 4 4 4
9 9 8 7 6 6 6 6 6 6 6 6 6 6 6 7 7 8 7 6 5 5 5 6 6 8 9 6 4 4 4 5 4 4 6 5 5 4 3 3 4 4 4
9 9 9 8 7 7 7 7 6 7 6 6 6 6 6 7 7 7 7 6 7 7 8 7 6 7 10 10 8 7 8 10 8 5 5 5 5 5 4 4 4 4 4
11 10 9 8 8 7 7 7 7 7 7 6 6 6 6 7 7 7 7 6 6 7 7 7 9 10 10 9 11 12 13 13 13 11 6 5 5 5 5 4 5 4 4
Wind_Direction
2 7 12 9 9 16 21 18 16 18 20 21 19 23 27 25 26 35 48 91 124 145 159 171 179 173 173 177 171 167 168 160 172 185 164 137 142 149 140 143 157 170 187
5 14 14 13 16 20 19 18 21 23 22 23 21 24 27 27 25 30 37 55 87 114 132 141 161 164 173 173 170 170 169 167 166 166 155 144 137 155 144 141 146 155 155
19 23 18 15 17 18 15 15 18 21 21 21 23 23 22 22 24 26 34 43 63 80 102 141 155 150 162 171 168 166 167 169 160 154 155 139 125 135 121 115 113 106 131
28 27 21 13 13 13 13 15 16 19 23 20 20 18 18 20 25 25 32 37 46 55 70 97 123 146 158 159 160 161 152 154 152 147 141 135 128 128 125 127 113 96 103
40 29 14 7 12 14 15 14 16 20 23 16 20 17 13 17 25 28 32 42 49 55 57 65 76 106 143 153 155 159 152 152 146 142 138 132 137 144 150 142 128 114 85
57 31 12 12 11 10 10 12 15 15 12 17 18 16 17 19 27 36 44 42 48 59 56 44 53 57 77 113 147 156 158 158 157 152 151 153 158 152 140 140 138 133 119
71 38 17 15 13 6 10 15 13 8 11 15 13 12 10 8 27 40 49 55 55 51 49 46 52 54 62 72 87 93 106 129 153 153 152 162 163 163 147 143 140 124 112
85 46 17 17 12 5 11 9 2 1 8 11 13 11 12 14 30 43 54 52 56 50 45 46 55 47 62 86 89 80 71 66 104 129 144 156 158 149 145 138 127 105 92
110 57 341 12 14 8 3 356 351 3 11 11 13 18 20 11 30 47 56 48 55 45 37 41 57 59 69 90 95 93 81 66 75 88 92 96 109 122 127 122 126 129 121
199 217 232 304 10 4 351 349 354 6 11 19 25 21 22 15 26 43 50 49 53 41 29 30 44 59 77 87 96 102 98 84 84 80 72 68 77 96 108 129 141 140 128
205 191 195 238 284 353 2 4 12 29 34 31 28 16 16 16 19 34 44 50 51 50 39 24 22 46 70 78 85 93 107 103 89 88 80 71 66 67 68 79 104 133 132
199 195 220 250 276 56 49 27 27 44 50 34 28 18 8 5 13 23 36 43 51 63 43 14 18 49 67 75 84 100 102 95 88 84 81 74 73 70 68 71 77 72 72
199 212 227 231 238 116 96 65 39 41 54 40 36 22 355 354 2 18 25 30 38 51 37 39 53 62 65 64 78 96 95 93 93 93 92 81 72 84 87 79 68 69 62
205 217 214 207 218 216 141 115 92 63 59 51 37 10 348 348 355 357 0 7 19 33 30 39 57 65 63 62 67 69 72 92 106 108 106 91 78 77 78 83 85 75 68
210 217 213 209 205 201 195 196 193 220 210 193 215 238 308 332 320 338 356 357 355 11 54 47 47 51 55 52 55 62 70 83 90 94 101 98 90 89 79 68 78 75 86
203 213 210 206 205 198 197 245 278 245 252 237 224 220 253 269 305 340 359 8 19 77 82 69 63 66 74 78 81 71 68 84 97 106 109 111 114 113 101 83 84 97 107
197 204 204 203 201 199 199 206 239 273 267 266 259 253 253 274 304 333 353 13 45 91 86 91 94 95 95 95 98 99 94 95 110 116 119 123 124 118 116 116 111 107 110
199 204 198 202 202 202 203 206 205 211 241 263 255 247 252 263 282 310 342 43 52 53 104 141 150 145 134 127 126 122 118 110 108 117 123 128 131 129 131 139 144 143 140
196 199 201 202 204 206 205 206 207 211 218 230 240 254 244 254 277 284 293 141 173 190 187 184 185 177 170 160 153 148 143 138 136 130 131 137 141 136 142 152 156 156 145
203 206 194 197 205 207 208 208 213 215 217 216 220 223 201 183 228 244 215 201 199 206 202 196 198 193 182 176 166 155 151 152 149 145 149 149 150 149 154 157 161 164 174
199 205 203 198 204 208 209 213 215 214 216 219 225 216 186 190 212 218 214 210 208 207 203 200 197 194 190 182 177 178 176 183 181 174 169 167 160 157 161 164 169 171 167
195 198 195 200 207 212 215 216 214 216 219 223 230 225 204 201 211 215 217 219 214 210 200 192 196 199 194 189 185 183 187 194 194 186 182 178 173 168 164 165 168 169 171
197 199 201 205 208 218 221 220 216 216 219 219 216 210 199 208 217 219 221 219 212 208 202 195 198 205 207 201 193 185 188 197 197 186 180 180 179 179 174 178 180 174 185
200 202 204 205 206 211 217 222 221 220 219 219 215 210 210 212 217 221 221 216 210 208 201 198 202 206 205 202 201 196 195 195 187 189 186 182 182 182 180 184 190 192 194
202 204 205 206 206 209 214 220 222 224 223 221 218 215 214 214 218 222 220 213 209 209 208 205 205 208 209 206 202 202 203 199 192 181 178 179 185 186 184 188 190 193 192
204 206 208 207 207 208 209 215 219 220 222 224 221 217 214 214 217 218 214 208 208 211 211 208 210 209 208 207 209 208 205 203 200 192 177 176 184 191 188 193 199 196 198